KZR993 UACC-UACC

Flight info

Callsign KZR993
Flight time N/A
Altitude 4000
Route RA/A040
Aircraft A21N/M-SDE3FGHIRWY/LB1

Departure

Time 2026-04-26 15:54
Airport Nursultan Nazarbayev International Airport (UACC)

Arrival

Time N/A
Airport Nursultan Nazarbayev International Airport (UACC)
Time Latitude Longitude Altitude Speed Heading
2026-04-26 15:30 51.02483 71.45891 1174 ft 0 kts 45°
2026-04-26 15:46 51.02499 71.45918 1174 ft 4 kts 50°
2026-04-26 15:46 51.02500 71.45985 1174 ft 8 kts 116°
2026-04-26 15:46 51.02458 71.46069 1174 ft 10 kts 134°
2026-04-26 15:46 51.02430 71.46113 1174 ft 10 kts 136°
2026-04-26 15:47 51.02356 71.46242 1174 ft 11 kts 112°
2026-04-26 15:47 51.02455 71.46470 1174 ft 15 kts 44°
2026-04-26 15:47 51.02521 71.46571 1174 ft 17 kts 44°
2026-04-26 15:48 51.02588 71.46676 1174 ft 18 kts 44°
2026-04-26 15:48 51.02674 71.46812 1174 ft 18 kts 45°
2026-04-26 15:48 51.02733 71.46918 1174 ft 10 kts 81°
2026-04-26 15:48 51.02699 71.47009 1174 ft 5 kts 135°
2026-04-26 15:49 51.02662 71.47066 1174 ft 7 kts 136°
2026-04-26 15:49 51.02620 71.47134 1174 ft 9 kts 138°
2026-04-26 15:49 51.02573 71.47109 1174 ft 3 kts 225°
2026-04-26 15:49 51.02570 71.47105 1174 ft 0 kts 225°
2026-04-26 15:51 51.02566 71.47100 1174 ft 0 kts 223°
2026-04-26 15:53 51.02562 71.47093 1174 ft 9 kts 224°
2026-04-26 15:53 51.02331 71.46716 1174 ft 91 kts 224°
2026-04-26 15:54 51.00893 71.44511 2043 ft 162 kts 227°
2026-04-26 15:54 51.00132 71.43403 2898 ft 160 kts 224°
2026-04-26 15:54 50.99357 71.42619 3582 ft 164 kts 209°
2026-04-26 15:55 50.98200 71.42250 4302 ft 179 kts 189°
2026-04-26 15:55 50.96797 71.42664 4632 ft 222 kts 162°
2026-04-26 15:55 50.95517 71.44246 4338 ft 250 kts 137°
2026-04-26 15:55 50.94469 71.46477 3996 ft 253 kts 130°
2026-04-26 15:56 50.93474 71.48744 3759 ft 254 kts 130°
2026-04-26 15:56 50.92475 71.51013 3601 ft 254 kts 131°
2026-04-26 15:56 50.91464 71.53217 3528 ft 253 kts 131°
2026-04-26 15:56 50.90523 71.55590 3493 ft 258 kts 118°
2026-04-26 15:57 50.90245 71.58411 3530 ft 268 kts 85°
2026-04-26 15:57 50.90899 71.61153 3592 ft 271 kts 53°
2026-04-26 15:57 50.92171 71.63225 3669 ft 268 kts 39°
2026-04-26 15:57 50.93095 71.64590 3661 ft 267 kts 40°
2026-04-26 15:58 50.94862 71.67323 3639 ft 268 kts 43°
2026-04-26 15:58 50.96110 71.69379 3643 ft 269 kts 46°
2026-04-26 15:58 50.97353 71.71534 3645 ft 271 kts 47°
2026-04-26 15:58 50.98494 71.73447 3652 ft 270 kts 44°
2026-04-26 15:59 50.99703 71.75355 3657 ft 270 kts 43°
2026-04-26 15:59 51.01011 71.77297 3662 ft 271 kts 41°
2026-04-26 15:59 51.02456 71.79356 3670 ft 273 kts 40°
2026-04-26 16:00 51.05034 71.83088 3660 ft 273 kts 42°